{"data":{"norad_id":60339,"epoch":"2026-09-21T22:56:51.382464Z","epoch_age_seconds":59765,"freshness":"FRESH","line1":"1 60339U 24136L   26264.95615026  .00001098  00000+0  43642-4 0  9991","line2":"2 60339  53.1589 242.6251 0001637 100.9981 259.1206 15.34400453119736","mean_motion":15.34400453,"eccentricity":0.0001637,"inclination_deg":53.1589,"raan_deg":242.6251,"arg_perigee_deg":100.9981,"mean_anomaly_deg":259.1206,"bstar":4.3642e-5,"rev_number":11973,"period_min":93.847730374725,"perigee_km":461.58204846906,"apogee_km":463.82173912289,"semimajor_km":6840.838893796,"source":"CELESTRAK","updated_at":"2026-09-22T09:00:49.220586Z"}}